| time (UTC) | temp C | wind direction | speed KPH | gust KPH | rain 1hr cm | rain 24hr cm | rain mn cm | humidity % | barometer mb |
| 20260505210003 | 15 | 106 | 11.3 | 19.3 | 0.00 | 0.00 | 0.00 | 65 | 1005.3 |
| 20260505205003 | 15 | 105 | 12.9 | 22.5 | 0.00 | 0.00 | 0.00 | 63 | 1005.2 |
| 20260505204003 | 15 | 96 | 14.5 | 20.9 | 0.00 | 0.00 | 0.00 | 62 | 1005.2 |
| 20260505203003 | 15 | 97 | 12.9 | 22.5 | 0.00 | 0.00 | 0.00 | 62 | 1005.1 |
| 20260505202003 | 16 | 98 | 16.1 | 22.5 | 0.00 | 0.00 | 0.00 | 61 | 1005.1 |
| 20260505201003 | 16 | 97 | 14.5 | 29.0 | 0.00 | 0.00 | 0.00 | 60 | 1005.3 |
| 20260505200003 | 16 | 101 | 14.5 | 24.1 | 0.00 | 0.00 | 0.00 | 60 | 1005.2 |
| 20260505195003 | 16 | 97 | 12.9 | 24.1 | 0.00 | 0.00 | 0.00 | 60 | 1005.2 |
| 20260505194004 | 16 | 101 | 12.9 | 24.1 | 0.00 | 0.00 | 0.00 | 60 | 1005.1 |
| 20260505193003 | 16 | 101 | 14.5 | 22.5 | 0.00 | 0.00 | 0.00 | 59 | 1005.0 |
| 20260505192004 | 17 | 104 | 14.5 | 29.0 | 0.00 | 0.00 | 0.00 | 58 | 1005.0 |
| 20260505191004 | 17 | 105 | 14.5 | 27.4 | 0.00 | 0.00 | 0.00 | 58 | 1005.1 |
| 20260505190004 | 17 | 107 | 16.1 | 29.0 | 0.00 | 0.00 | 0.00 | 57 | 1005.1 |
| 20260505185004 | 17 | 110 | 14.5 | 25.7 | 0.00 | 0.00 | 0.00 | 56 | 1005.1 |
| 20260505184004 | 17 | 112 | 16.1 | 30.6 | 0.00 | 0.00 | 0.00 | 55 | 1005.1 |
| 20260505183004 | 18 | 108 | 17.7 | 27.4 | 0.00 | 0.00 | 0.00 | 55 | 1005.2 |
| 20260505182003 | 18 | 109 | 16.1 | 29.0 | 0.00 | 0.00 | 0.00 | 54 | 1004.9 |
| 20260505181004 | 18 | 112 | 14.5 | 27.4 | 0.00 | 0.00 | 0.00 | 53 | 1005.0 |
| 20260505180004 | 19 | 112 | 19.3 | 35.4 | 0.00 | 0.00 | 0.00 | 52 | 1005.0 |
| 20260505175004 | 20 | 115 | 16.1 | 30.6 | 0.00 | 0.00 | 0.00 | 50 | 1005.0 |
| 20260505174004 | 20 | 124 | 20.9 | 40.2 | 0.00 | 0.00 | 0.00 | 48 | 1004.9 |
| 20260505173004 | 21 | 137 | 19.3 | 33.8 | 0.00 | 0.00 | 0.00 | 46 | 1004.8 |
| 20260505172003 | 21 | 135 | 20.9 | 33.8 | 0.00 | 0.00 | 0.00 | 45 | 1004.8 |
| 20260505171004 | 21 | 134 | 20.9 | 33.8 | 0.00 | 0.00 | 0.00 | 45 | 1004.7 |
| 20260505170004 | 22 | 132 | 20.9 | 32.2 | 0.00 | 0.00 | 0.00 | 43 | 1004.7 |